Regional Weather Roundup
Issued by NWS

Home | Current Version | Previous Version | Graphics & Text | Print | Product List | Glossary On
Versions: 1 2 3 4 5 6 7 8 9 10 11 12 13 14 15 16 17 18 19 20 21 22 23 24 25 26 27 28 29 30 31 32 33 34 35 36 37 38 39 40 41 42 43 44 45 46 47 48 49 50
000
ASUS43 KMKX 281221
RWRWI

WISCONSIN REGIONAL WEATHER ROUNDUP
NATIONAL WEATHER SERVICE MILWAUKEE/SULLIVAN WI
700 AM CDT WED JUN 28 2017

NOTE: "FAIR" INDICATES FEW OR NO CLOUDS BELOW 12,000 FEET WITH NO
SIGNIFICANT WEATHER AND/OR OBSTRUCTIONS TO VISIBILITY.

WIZ001-002-006>008-014>016-023>028-281300-
NORTHWEST WISCONSIN

CITY           SKY/WX    TMP DP  RH WIND       PRES   REMARKS
SUPERIOR ARPT  NOT AVBL
ASHLAND        CLOUDY    59  49  69 CALM      29.74F
6HR MIN TEMP:  48; 6HR MAX TEMP:  60;

HAYWARD        CLOUDY    59  47  64 CALM      29.72F
6HR MIN TEMP:  58; 6HR MAX TEMP:  61;

SIREN          CLOUDY    63  50  61 SE5       29.67F
6HR MIN TEMP:  62; 6HR MAX TEMP:  65;

CUMBERLAND     CLOUDY    55  48  76 SE8       29.70F
RICE LAKE      CLOUDY    60  49  66 E10       29.71F
6HR MIN TEMP:  59; 6HR MAX TEMP:  61;

CHETEK         CLOUDY    59  50  71 SE10      29.72F
LADYSMITH      CLOUDY    62  50  65 SE6       29.77S
6HR MIN TEMP:  57; 6HR MAX TEMP:  62;

EAU CLAIRE     CLOUDY    63  49  60 SE12      29.72F
6HR MIN TEMP:  62; 6HR MAX TEMP:  64;

MENOMONIE      CLOUDY    63  53  69 E12       29.70F
6HR MIN TEMP:  59; 6HR MAX TEMP:  63;

NEW RICHMOND   RAIN      60  56  86 SE7       29.67F
6HR MIN TEMP:  60; 6HR MAX TEMP:  64; 6HR PCP:  0.05;

OSCEOLA        RAIN      61  61 100 SE12      29.67S
6HR MIN TEMP:  61; 6HR MAX TEMP:  65; 6HR PCP:  0.08;

$$

WIZ003>005-009-010-017-018-281300-
NORTH CENTRAL WISCONSIN

CITY           SKY/WX    TMP DP  RH WIND       PRES   REMARKS
MANITOWISH WTR CLOUDY    58  50  75 S8        29.80F
6HR MIN TEMP:  53; 6HR MAX TEMP:  58;

ARBOR VITAE    CLOUDY    59  49  67 S9        29.80F
6HR MIN TEMP:  55; 6HR MAX TEMP:  59;

WOODRUFF       CLOUDY    59  49  67 S9        29.80F
6HR MIN TEMP:  55; 6HR MAX TEMP:  59;

RHINELANDER    CLOUDY    57  49  74 S6        29.83F
6HR MIN TEMP:  51; 6HR MAX TEMP:  58;

EAGLE RIVER    CLOUDY    55  46  70 S6        29.83F
6HR MIN TEMP:  50; 6HR MAX TEMP:  56;

LAND O LAKES   CLOUDY    58  48  68 S6        29.85S
6HR MIN TEMP:  47; 6HR MAX TEMP:  57; 6HR PCP:  0.01;

PHILLIPS       CLOUDY    59  50  71 S7        29.77S
6HR MIN TEMP:  55; 6HR MAX TEMP:  59;

TOMAHAWK       NOT AVBL
MEDFORD        CLOUDY    56  48  74 SE10      29.79S
6HR MIN TEMP:  53; 6HR MAX TEMP:  56;

MERRILL        CLOUDY    56  49  77 SE3       29.83R
6HR MIN TEMP:  46; 6HR MAX TEMP:  59;

$$

WIZ029-030-035-036-043>047-281300-
CENTRAL WISCONSIN

CITY           SKY/WX    TMP DP  RH WIND       PRES   REMARKS
WAUSAU           N/A    N/A N/A N/A MISG      29.82F
MOSINEE        CLOUDY    57  50  77 SE8       29.84F
MARSHFIELD     CLOUDY    58  49  72 S10       29.81R
6HR MIN TEMP:  52; 6HR MAX TEMP:  58;

STEVENS POINT  CLOUDY    60  48  64 SE7       29.84R
6HR MIN TEMP:  54; 6HR MAX TEMP:  60;

WAUPACA        CLOUDY    60  52  74 SE7       29.87R
6HR MIN TEMP:  51; 6HR MAX TEMP:  60;

WAUTOMA        NOT AVBL
WISC RAPIDS    CLOUDY    62  50  64 S8        29.83R
6HR MIN TEMP:  52; 6HR MAX TEMP:  62;

CAMP DOUGLAS   CLOUDY    61  52  72 SE10      29.80S
$$

WIZ011>013-019>022-031-037>040-048>050-281300-
NORTHEAST WISCONSIN

CITY           SKY/WX    TMP DP  RH WIND       PRES   REMARKS
ANTIGO         CLOUDY    54  49  83 S8        29.86F
6HR MIN TEMP:  49; 6HR MAX TEMP:  55;

SHAWANO        CLOUDY    61  50  67 S6        29.86F
OCONTO         MOSUNNY   62  53  72 S7        29.88F
6HR MIN TEMP:  51; 6HR MAX TEMP:  62;

STURGEON BAY     N/A     61  49  64 S10       29.90F
6HR MIN TEMP:  57; 6HR MAX TEMP:  61;

GREEN BAY      CLOUDY    61  52  72 S9        29.88F
6HR MIN TEMP:  54; 6HR MAX TEMP:  61;

MANITOWOC      CLOUDY    57  50  77 SE5       29.93F
6HR MIN TEMP:  55; 6HR MAX TEMP:  61;

APPLETON       PTSUNNY   63  46  55 S10       29.87F
CLINTONVILLE   PTSUNNY   59  50  72 S7        29.88R
OSHKOSH        CLOUDY    60  50  69 S8        29.88F
6HR MIN TEMP:  51; 6HR MAX TEMP:  60;

$$

WIZ032>034-041-042-053>061-281300-
SOUTHWEST WISCONSIN

CITY           SKY/WX    TMP DP  RH WIND       PRES   REMARKS
LA CROSSE      LGT RAIN  67  60  78 S20G26    29.80R
6HR MIN TEMP:  68; 6HR MAX TEMP:  72;

SPARTA         CLOUDY    64  52  65 S7        29.80S
6HR MIN TEMP:  62; 6HR MAX TEMP:  65;

VIROQUA        CLOUDY    62  55  77 S8        29.83R
6HR MIN TEMP:  60; 6HR MAX TEMP:  64;

BOSCOBEL       TSTM      63  59  87 S9        29.86R FOG
6HR MIN TEMP:  63; 6HR MAX TEMP:  67; 6HR PCP:  0.02;

PRAIRIE DU CHI HVY RAIN  61  59  91 S7        29.85R
6HR MIN TEMP:  61; 6HR MAX TEMP:  68; 6HR PCP:  0.34;

PLATTEVILLE    CLOUDY    62  59  91 SW12      29.90R
6HR MIN TEMP:  58; 6HR MAX TEMP:  65; 6HR PCP:  0.06;

$$

WIZ056-057-062-063-064-067-068-281300-
SOUTH CENTRAL WISCONSIN

CITY           SKY/WX    TMP DP  RH WIND       PRES   REMARKS
REEDSBURG      RAIN      62  53  71 S10G18    29.84S
6HR MIN TEMP:  59; 6HR MAX TEMP:  63;

BARABOO/DELLS  CLOUDY    62  49  63 S14       29.86R
6HR MIN TEMP:  54; 6HR MAX TEMP:  62;

LONE ROCK      LGT RAIN  64  54  69 S9G21     29.88R
6HR MIN TEMP:  56; 6HR MAX TEMP:  67;

MINERAL POINT  CLOUDY    63  54  72 S9        29.89R
MADISON        CLOUDY    63  50  62 S12       29.89R
6HR MIN TEMP:  59; 6HR MAX TEMP:  63;

MIDDLETON      CLOUDY    64  51  63 S15       29.89R
6HR MIN TEMP:  56; 6HR MAX TEMP:  64;

WATERTOWN      NOT AVBL
MONROE         CLOUDY    63  50  63 S14       29.90R
JANESVILLE     PTSUNNY   64  50  59 S13       29.90F
$$

WIZ051-052-058>065-066-070>072-281300-
SOUTHEAST WISCONSIN

CITY           SKY/WX    TMP DP  RH WIND       PRES   REMARKS
MILWAUKEE      CLOUDY    63  50  62 S10       29.95F
6HR MIN TEMP:  57; 6HR MAX TEMP:  63;

WAUKESHA       SUNNY     57  48  72 S9        29.95F
MILWAUKEE/TIMM CLOUDY    61  45  55 S14       29.95S
RACINE         CLOUDY    62  49  62 S10       29.98S
6HR MIN TEMP:  56; 6HR MAX TEMP:  62;

KENOSHA        CLOUDY    62  49  62 S9        29.96F
6HR MIN TEMP:  56; 6HR MAX TEMP:  62;

FOND DU LAC    CLOUDY    62  48  60 S10       29.89F
6HR MIN TEMP:  56; 6HR MAX TEMP:  62;

SHEBOYGAN      CLOUDY    60  52  74 S10       29.93F
6HR MIN TEMP:  49; 6HR MAX TEMP:  60;

WEST BEND      CLOUDY    59  50  72 S6        29.94R
JUNEAU         CLOUDY    59  49  68 SE10      29.92S
6HR MIN TEMP:  54; 6HR MAX TEMP:  59;

$$

LSZ147-162-281300-
LAKE SUPERIOR

STATION/POSITION TIME  TEMP    WIND        PRES    WAVE
                       AIR SEA DIR/SP/G            HT/PER
                 (UTC) (F)     (DEG/KT/KT) (MB)    (FT/S)
W MID LAKE BUOY  1150   46 39  150/ 10/ 12 1008.0F   1
DEVILS ISLAND    1200   60     160/  7/  8 1007.0F
SAXON HARBOR     1140   64     190/  7/ 14 1006.8F
$$

LMZ867-665-643>646-281300-
LAKE MICHIGAN

STATION/POSITION TIME  TEMP    WIND        PRES    WAVE
                       AIR SEA DIR/SP/G            HT/PER
                 (UTC) (F)     (DEG/KT/KT) (MB)    (FT/S)
CHAMBERS ISLAND  1130   65     160/  3/ 11 1012.5F
S GREEN BAY BUOY 1200   65     180/ 16/ 19 1011.6
N MID LAKE BUOY  1150   57 56  180/ 10/ 12 1014.4F   3/ 5
NORTHPORT PIER   1140   62     170/  3/  6 1013.2F
KEWAUNEE LAKESHO 1154   52     180/  6/  8 1012.6F
SHEBOYGAN LAKESH 1200   57     180/ 16/ 17 1013.3F
PORT WASHINGTON  1130   57     190/  3/  5 1014.6F
ATWATER BUOY     1109   59 55  170/ 10/ 12 1014.0F
MILWAUKEE LAKESH 1120   61     190/ 10/ 11   N/A
S MID LAKE BUOY  1150   63 61  180/ 16/ 21 1015.1F   2/ 4
KENOSHA   LAKESH 1200   61     180/ 12/ 16 1014.6
$$

TC  - TEMPERATURE IN CELSIUS
VS



USA.gov is the U.S. government's official web portal to all federal, state and local government web resources and services.